#timestamp,LO_Frequency,Hit,StdDev 
1531198815.1,286046997.8,N
1531198835.9,286046996.5,Y
1531198855.7,286047000.1,P
1531198875.6,286047000.2,N
1531198895.4,286047002.4,N
1531198915.2,286047000.5,N
1531198935.1,286047001.6,N
1531198936.0,286047001.6,N
1531198955.8,286047002.8,N
1531198975.7,286046999.9,N
1531198995.5,286047000.0,N
1531199015.3,286047000.5,N
1531199035.2,286047000.8,N
1531199055.0,286047001.0,N
1531199055.9,286047001.0,N
1531199075.8,286047000.4,N
1531199095.6,286047000.3,N
1531199115.4,286047002.5,N
1531199135.3,286047002.7,N
1531199155.1,286046999.7,N
1531199175.8,286047002.2,N
1531199195.7,286047000.1,N
1531199215.9,286047002.3,N
1531199235.7,286047000.4,N
1531199255.5,286047000.3,N
1531199275.3,286047002.7,N
1531199295.2,286047001.6,N
1531199315.9,286047002.2,N
1531199335.7,286047003.9,Y
1531199355.6,286047002.6,P
1531199375.4,286047000.5,N
1531199395.3,286047001.1,N
1531199415.1,286046999.2,N
1531199435.8,286046999.6,N
1531199455.7,286047000.8,N
1531199475.5,286046999.6,N
1531199495.3,286046998.6,N
1531199515.2,286046999.2,N
1531199535.0,286046998.6,N
1531199535.9,286046998.6,N
1531199555.8,286046999.0,N
1531199575.6,286046999.1,N
1531199595.4,286046998.8,N
1531199615.3,286046998.5,N
1531199635.1,286046999.6,N
1531199655.9,286046999.1,N
1531199675.7,286046997.1,N
1531199695.5,286046997.6,N
1531199715.4,286046997.3,N
1531199735.2,286046997.1,N
1531199755.0,286046999.3,N
1531199755.9,286046999.3,N
1531199775.8,286046996.7,N
1531199795.6,286046999.6,N
1531199815.4,286046996.6,N
1531199835.3,286046997.3,N
1531199855.1,286046995.4,Y
1531199875.9,286046997.3,P
1531199895.7,286046995.4,P
1531199915.5,286046997.5,N
1531199935.4,286046997.9,N
1531199955.2,286046996.6,N
1531199975.0,286046999.5,N
1531199976.0,286046999.5,N
1531199995.8,286046999.3,N
1531200015.6,286046999.3,N
1531200035.5,286046997.0,N
1531200055.3,286046997.4,N
1531200075.1,286046996.6,N
1531200095.9,286046997.0,N
1531200115.7,286046997.3,N
1531200135.6,286046996.5,N
1531200155.4,286046996.7,N
1531200175.2,286046997.2,N
1531200195.1,286046996.6,N
1531200196.0,286046996.6,N
1531200215.8,286046997.0,N
1531200235.6,286046996.9,N
1531200255.5,286046998.0,N
1531200275.3,286046997.7,N
1531200295.2,286046998.0,N
1531200315.9,286046998.0,N
1531200335.7,286046994.9,Y
1531200355.6,286047001.2,P
1531200375.4,286047000.9,N
1531200395.2,286047000.6,N
1531200415.1,286046998.9,N
1531200416.0,286046998.9,N
1531200435.8,286046999.2,N
1531200455.7,286046999.6,N
1531200475.5,286046999.2,N
1531200495.3,286046999.3,N
1531200515.2,286046998.8,N
1531200535.0,286046999.1,N
1531200535.9,286046999.1,N
1531200555.8,286046999.0,N
1531200575.6,286046999.4,N
1531200595.4,286046998.5,N
1531200615.3,286046998.9,N
1531200635.1,286046998.3,N
1531200655.8,286047001.2,N
1531200675.7,286046998.2,N
1531200695.5,286046998.5,N
1531200715.4,286046998.2,N
1531200735.2,286047001.2,N
1531200755.0,286046998.2,N
1531200755.9,286046998.2,N
1531200775.8,286046999.0,N
1531200795.6,286046999.1,N
1531200815.4,286046997.2,N
1531200835.3,286046998.6,N
1531200855.1,286046999.6,N
1531200875.9,286046999.4,N
1531200895.7,286046999.4,N
1531200915.5,286046997.7,N
1531200935.4,286046997.3,Y
1531200955.2,286046998.6,P
1531200975.1,286046998.7,P
1531200976.0,286046998.7,P
1531200995.8,286046999.2,Y
1531201015.6,286046999.3,P
1531201035.7,286047000.7,N
1531201055.5,286047000.4,N
1531201075.4,286046998.2,N
1531201095.2,286047000.7,N
1531201115.0,286046998.4,N
1531201115.9,286046998.4,N
1531201135.8,286047000.9,N
1531201155.6,286047002.3,N
1531201175.5,286046999.9,N
1531201195.3,286047002.5,N
1531201215.1,286047001.6,N
1531201235.9,286047002.1,N
1531201255.7,286047004.4,Y
1531201275.6,286047000.2,P
1531201295.4,286046999.9,N
1531201315.2,286047000.0,N
1531201335.1,286046999.8,N
1531201336.0,286046999.8,N
1531201355.8,286046999.9,N
1531201375.7,286047002.2,Y
1531201395.5,286046999.7,P
1531201415.3,286046998.8,P
1531201435.2,286046998.8,N
1531201455.0,286046999.1,N
1531201455.9,286046999.1,N
1531201475.7,286046998.9,N
1531201495.6,286046998.1,Y
1531201515.4,286047000.9,P
1531201535.3,286046998.1,N
1531201555.1,286046998.5,N
1531201575.8,286046998.4,N
1531201595.7,286046998.9,N
1531201615.5,286046998.5,N
1531201635.4,286047000.7,N
1531201655.2,286046998.2,N
1531201675.0,286046998.3,N
1531201675.9,286046998.3,N
1531201695.8,286046998.3,N
1531201715.6,286047001.2,N
1531201735.5,286047001.2,N
1531201755.3,286047001.2,N
1531201775.1,286047001.0,N
1531201795.9,286046998.7,N
1531201815.7,286046998.6,N
1531201835.6,286046998.3,N
1531201855.4,286046996.6,N
1531201875.2,286046997.3,N
1531201895.1,286046997.7,N
1531201896.0,286046997.7,N
1531201915.8,286046994.9,Y
1531201935.6,286046999.1,P
1531201955.5,286046999.3,P
1531201975.3,286046997.2,P
1531201995.2,286046996.5,Y
1531202015.9,286046998.1,P
1531202035.7,286046999.9,N
1531202055.6,286046999.8,N
1531202075.4,286047000.9,N
1531202095.3,286047000.9,N
1531202115.1,286046999.9,N
1531202116.0,286046999.9,N
1531202135.8,286047002.7,N
1531202155.7,286047002.4,N
1531202175.5,286047000.1,N
1531202195.4,286047000.4,N
1531202215.2,286047002.4,N
1531202235.0,286047000.8,N
1531202235.9,286047000.8,N
1531202255.8,286047000.1,N
1531202275.6,286047002.5,N
1531202295.5,286047001.7,N
1531202315.3,286047001.9,N
1531202335.1,286047000.5,N
1531202355.9,286046998.2,N
1531202375.7,286047002.8,N
1531202395.5,286047000.9,N
